Location: Unspecified
(0.0000°N, 0.0000°E)
Time: 20:55:51
(UTC+00:00)

Transit 2A Rocket - All Passes

Search period start: 14 July 2020 00:00
Search period end: 24 July 2020 00:00
Orbit: 584 x 919 km, 66.7° (Epoch: 14 July)

Date Brightness Start Highest point End Pass type
(mag) Time Alt. Az. Time Alt. Az. Time Alt. Az.
14 Jul - 09:33:07 10° S 09:37:38 46° ESE 09:42:34 10° NE daylight
14 Jul - 22:03:23 10° NNW 22:08:54 60° WSW 22:13:57 10° S visible
15 Jul - 08:51:40 10° SSE 08:55:13 21° ESE 08:58:58 10° ENE daylight
15 Jul - 10:33:49 10° WSW 10:37:30 21° WNW 10:41:27 10° NNW daylight
15 Jul - 21:20:50 10° NNW 21:26:25 65° ENE 21:31:30 10° SSE visible
16 Jul - 09:50:20 10° SW 09:54:54 46° WNW 09:59:56 10° N daylight
16 Jul - 20:38:57 10° N 20:43:51 31° ENE 20:48:23 10° SE visible
16 Jul - 22:22:37 10° WNW 22:26:06 17° WSW 22:29:24 10° SSW night (unlit)
17 Jul - 09:07:38 10° SSW 09:12:23 79° ESE 09:17:39 10° NNE daylight
17 Jul - 19:58:09 10° NE 20:01:13 15° ENE 20:04:09 10° ESE visible
17 Jul - 21:38:38 10° NW 21:43:41 36° WSW 21:48:19 10° S visible
18 Jul - 08:25:37 10° S 08:29:57 35° ESE 08:34:39 10° NE daylight
18 Jul - 10:10:06 10° W 10:12:24 13° WNW 10:14:47 10° NW daylight
18 Jul - 20:55:39 10° NNW 21:01:14 78° WSW 21:06:18 10° SSE visible
19 Jul - 07:44:36 10° SE 07:47:32 16° ESE 07:50:36 10° ENE daylight
19 Jul - 09:25:36 10° SW 09:29:45 28° WNW 09:34:15 10° N daylight
19 Jul - 20:13:18 10° N 20:18:42 49° ENE 20:23:38 10° SE visible
20 Jul - 08:42:26 10° SSW 08:47:11 62° WNW 08:52:26 10° N daylight
20 Jul - 19:31:42 10° NNE 19:36:07 24° ENE 19:40:13 10° ESE visible
20 Jul - 21:14:18 10° WNW 21:18:25 22° WSW 21:22:18 10° SSW visible
21 Jul - 07:59:58 10° S 08:04:42 59° ESE 08:09:53 10° NNE daylight
21 Jul - 18:51:58 10° NE 18:53:27 11° ENE 18:54:55 10° E visible
21 Jul - 20:30:44 10° NW 20:36:00 47° WSW 20:40:49 10° S visible
22 Jul - 07:18:14 10° SSE 07:22:16 27° ESE 07:26:37 10° NE daylight
22 Jul - 09:01:22 10° WSW 09:04:39 17° WNW 09:08:06 10° NNW daylight
22 Jul - 19:47:58 10° NNW 19:53:32 81° ENE 19:58:34 10° SSE visible
23 Jul - 06:37:58 10° SE 06:39:51 12° ESE 06:41:47 10° E daylight
23 Jul - 08:17:31 10° SW 08:22:01 37° WNW 08:26:55 10° N daylight
23 Jul - 19:05:52 10° N 19:10:59 38° ENE 19:15:41 10° SE visible
23 Jul - 20:50:45 10° W 20:53:10 13° WSW 20:55:30 10° SW visible
